Regional Weather Roundup
Issued by NWS

Home | Current Version | Previous Version | Text Only | Print | Product List | Glossary Off
Versions: 1 2 3 4 5 6 7 8 9 10 11 12 13 14 15 16 17 18 19 20 21 22 23 24 25 26 27 28 29 30 31 32 33 34 35 36 37 38 39 40 41 42 43 44 45 46 47 48 49 50

000
ASUS43 KLOT 192209
RWRIL

ILLINOIS REGIONAL WEATHER ROUNDUP
NATIONAL WEATHER SERVICE CHICAGO/ROMEOVILLE IL
500 PM CDT SAT AUG 19 2017

NOTE: "FAIR" INDICATES FEW OR NO CLOUDS BELOW 12,000 FEET WITH NO
SIGNIFICANT WEATHER AND/OR OBSTRUCTIONS TO VISIBILITY.

* THESE STATIONS ARE NOT UNDER NWS QUALITY CONTROL. THEY ALSO MAY NOT
  REPORT WEATHER SUCH AS PRECIPITATION OR FOG.

ILZ001-002-007-009-015-016-024-192300-
NORTHWEST ILLINOIS

CITY           SKY/WX    TMP DP  RH WIND       PRES   REMARKS
MOLINE         SUNNY     82  61  48 E5        29.94F HX  83
STERLING*      SUNNY     80  63  55 E3        29.96S HX  81
SAVANNA*       SUNNY     81  60  48 CALM      29.95F HX  82
$$

ILZ003-004-008-010-011-017-018-192300-
NORTH CENTRAL ILLINOIS

CITY           SKY/WX    TMP DP  RH WIND       PRES   REMARKS
ROCKFORD       MOSUNNY   81  60  48 VRB3      29.97S HX  82
FREEPORT*      SUNNY     78  58  49 SW5       29.98F
ROCHELLE*      SUNNY     79  62  55 SW5       29.97S HX  80
DE KALB*       SUNNY     79  61  54 CALM      29.97S HX  80
PERU*          SUNNY     80  57  45 S6        29.96F HX  80
$$

ILZ005-006-012>014-019>023-192300-
NORTHEAST ILLINOIS

CITY           SKY/WX    TMP DP  RH WIND       PRES   REMARKS
CHICAGO-OHARE  MOSUNNY   83  55  38 E12       29.94S HX  82
CHICAGO-MIDWAY MOSUNNY   82  54  37 E9        29.94F HX  81
AURORA         SUNNY     80  60  50 W6        29.96F HX  81
LANSING*       SUNNY     81  50  33 E6        29.96S HX  80
JOLIET*        SUNNY     82  60  46 SW3       29.95S HX  83
WAUKEGAN       SUNNY     76  62  62 SE9       29.95S
DUPAGE AIRPORT MOSUNNY   82  60  47 NW3       29.94F HX  82
KANKAKEE*      SUNNY     81  59  46 CALM      29.96S HX  81
WHEELING       SUNNY     80  58  46 E8        29.96S HX  80
MORRIS*        SUNNY     81  56  42 CALM      29.94F HX  81
ROMEOVILLE*    SUNNY     81  58  45 W6        29.95F HX  81
NORTHERLY ISL    N/A     77  61  57 E7          N/A
$$

LMZ740>746-192300-
SOUTHERN LAKE MICHIGAN

STATION/POSITION SKY/WX   TEMP    WIND        PRES    VSBY  WAVE
                          AIR SEA DIR/SP/G                  HT/PER
                          (F)     (DEG/KT/KT) (MB)    (MI)  (FT/S)
SOUTHERN BUOY              72 73  210/  6/  8 1014.4F         1
WILMETTE HARBOR            73 74  140/  8/ 10   N/A           1/ 2
HARRISON CRIB              75     120/  9/ 10   N/A
CALUMET HARBOR             74      80/  7/ 10 1014.0F
BURNS HARBOR               74      50/  5/  7 1015.2S
MICHIGAN CITY              75     350/  5/  6   N/A
MICHIGAN CITY 6N           72 76   20/  4/  6   N/A           1/ 4
ST. JOSEPH                 73     310/  4/  6 1014.5          1/ 4
$$

ILZ025>027-034>036-040-047-049-050-058-095>099-192300-
WEST-CENTRAL ILLINOIS

CITY           SKY/WX    TMP DP  RH WIND       PRES   REMARKS
QUINCY         SUNNY     87  64  46 E6        29.91F HX  88
GALESBURG*     SUNNY     82  63  52 CALM      29.96S HX  83
MACOMB*        SUNNY     82  66  57 E6        29.96F HX  84
JACKSONVILLE*  SUNNY     86  62  44 CALM      29.92F HX  87
PITTSFIELD*    SUNNY     86  69  55 E3        29.93S HX  90
$$

ILZ028>032-037-038-041>044-048-051>054-059>061-192300-
CENTRAL ILLINOIS

CITY           SKY/WX    TMP DP  RH WIND       PRES   REMARKS
PONTIAC        SUNNY     82  60  47 CALM      29.96F HX  83
BLOOMINGTON    SUNNY     82  64  54 NE6       29.96F HX  83
DECATUR        MOSUNNY   85  68  56 NE5       29.93F HX  88
PEORIA         SUNNY     85  60  42 VRB3      29.94S HX  85
LACON*         SUNNY     82  60  46 SE3       29.94F HX  82
LINCOLN*       MOSUNNY   86  67  53 CALM      29.94S HX  89
SPRINGFIELD    SUNNY     89  71  55 VRB5      29.93F HX  95
TAYLORVILLE    SUNNY     85  68  55 CALM      29.93F HX  88
$$

ILZ033-039-045-046-055>057-062-063-192300-
EAST-CENTRAL ILLINOIS

CITY           SKY/WX    TMP DP  RH WIND       PRES   REMARKS
CHAMPAIGN      SUNNY     84  64  50 N5        29.94F HX  85
RANTOUL*       PTSUNNY   86  66  51 W6        29.94F HX  88
MATTOON        PTSUNNY   87  68  52 VRB7      29.92S HX  90
PARIS*         SUNNY     84  68  58 N5        29.94S HX  87
$$

ILZ079-100>102-192300-
SOUTHWEST ILLINOIS

CITY           SKY/WX    TMP DP  RH WIND       PRES   REMARKS
BELLEVILLE     SUNNY     88  68  52 S5        29.92F HX  91
CAHOKIA*       MOSUNNY   92  64  39 SW5       29.91S HX  93
SPARTA*        SUNNY     89  68  49 SW6       29.93F HX  93
$$

ILZ064>066-069>071-074>076-080>082-084>086-088>090-092>094-192300-
SOUTH-CENTRAL ILLINOIS

CITY           SKY/WX    TMP DP  RH WIND       PRES   REMARKS
CARBONDALE     SUNNY     89  72  56 NW5       29.93F HX  96
CAIRO*         SUNNY     90  73  57 W5        29.92S HX  97
EFFINGHAM*     MOSUNNY   88  69  53 S6        29.94S HX  91
MARION         SUNNY     90  68  48 NW12      29.94F HX  93
MT. VERNON       N/A     89  68  49 VRB3      29.93S HX  93
CENTRALIA*     SUNNY     91  66  44 CALM      29.92S HX  93
SALEM*         SUNNY     90  66  44 W6        29.93S HX  92
METROPOLIS*    SUNNY     92  67  44 CALM      29.93S HX  95
$$

ILZ067-068-072-073-078-083-087-091-192300-
SOUTHEAST ILLINOIS

CITY           SKY/WX    TMP DP  RH WIND       PRES   REMARKS
LAWRENCEVILLE  PTSUNNY   91  66  43 W10       29.92S HX  93
FLORA*         MOSUNNY   89  72  56 SW9       29.92S HX  95
FAIRFIELD*     SUNNY     88  70  54 CALM      29.91F HX  93
HARRISBURG*    MOSUNNY   90  71  52 W8        29.93S HX  95
ROBINSON*      CLOUDY    75  71  87 E3        29.94F
CARMI*         SUNNY     87  75  67 W3        29.92S HX  95
$$

ABBREVIATIONS USED IN REMARKS
   TC - TEMPERATURE IN CELSIUS
  WCI - WIND CHILL INDEX
   HX - HEAT INDEX
  VSB - VISIBILITY
$$





USA.gov is the U.S. government's official web portal to all federal, state and local government web resources and services.